Find GPS IIR-20(M)

NORAD ID: 34661 Int'l Des: 2009-014 Owner: AFSMC Country: US Constellation: GPS operational
MEOGNSS

現在のビュー

3D地球を読み込み中...

GPS IIR-20(M)について

説明を読み込み中...

次回通過

Passes for default location (London). Set your location on the main map for personalized predictions.

高度履歴

Loading altitude history...

軌道要素

1 34661U 09014A 26143.23442146 -.00000012 00000-0 00000-0 0 9990
2 34661 54.4863 211.6557 0144217 61.5748 18.4350 2.00553310125782
Epoch: May 23, 2026 • Age: 79 hours

現在のステータス

高度 20430.6 km
速度 3.84 km/s
衛星直下点 -48.10°S, 86.15°E
打ち上げ日 Mar 24, 2009
運用期間 17.1 years
タイプ navigation

技術仕様

分類 Payload
質量 1077.00 kg
乾燥質量 910.00 kg
総質量 2032.00 kg
長さ 1.50 m
直径 1.90 m
スパン 19.30 m
形状 Box + 2 Pan
製造者 LMVF
バスタイプ Series 4000
フェーズステータス In Orbit
所有者/国 AFSMC/US

Most Searched